IBUKIYAMA Weather Reports


time (UTC)temp
C
wind
direction
speed
KPH
gust
KPH
rain 1hr
cm
rain 24hr
cm
rain mn
cm
humidity
%
barometer
mb
20260509135021 5 359 17.7 27.4 0.00 0.10 0.03 60 877.0
20260509134022 5 311 16.1 29.0 0.00 0.10 0.03 64 877.1
20260509133028 5 359 16.1 25.7 0.00 0.10 0.03 66 877.1
20260509132030 5 359 14.5 29.0 0.00 0.10 0.03 66 877.2
20260509131054 5 312 12.9 27.4 0.00 0.10 0.03 67 877.1
20260509130031 5 359 16.1 30.6 0.00 0.10 0.03 67 877.0
20260509125034 5 359 16.1 29.0 0.00 0.10 0.03 67 876.9
20260509124018 5 310 16.1 27.4 0.00 0.10 0.03 69 877.0
20260509123045 5 331 16.1 27.4 0.00 0.10 0.03 69 877.1
20260509122041 5 330 16.1 27.4 0.00 0.10 0.03 71 877.0
20260509121024 5 359 16.1 29.0 0.00 0.10 0.03 72 877.0
20260509120029 5 359 14.5 24.1 0.00 0.10 0.03 73 877.1
20260509115030 5 322 17.7 29.0 0.00 0.10 0.03 74 877.1
20260509114034 5 339 16.1 30.6 0.00 0.10 0.03 75 877.1
20260509113028 5 319 14.5 27.4 0.00 0.10 0.03 76 877.1
20260509112030 5 307 14.5 24.1 0.00 0.10 0.03 78 877.0
20260509111034 5 316 16.1 27.4 0.00 0.10 0.03 79 876.9
20260509110038 5 359 12.9 24.1 0.00 0.10 0.03 80 876.9
20260509105028 5 307 14.5 22.5 0.00 0.10 0.03 84 876.7
20260509104051 5 310 12.9 19.3 0.00 0.10 0.03 87 876.7
20260509103029 5 359 11.3 19.3 0.00 0.10 0.03 86 876.6
20260509102046 5 314 11.3 19.3 0.00 0.10 0.03 89 876.3
20260509101028 5 359 9.7 17.7 0.00 0.10 0.03 93 876.2
20260509100029 5 316 8.0 17.7 0.00 0.10 0.03 94 876.0
20260509095053 5 324 8.0 19.3 0.00 0.10 0.03 93 876.0
20260509094033 5 359 9.7 17.7 0.00 0.10 0.03 90 876.1
20260509093028 6 317 11.3 20.9 0.00 0.10 0.03 89 875.8
20260509092032 6 295 9.7 19.3 0.00 0.10 0.03 86 875.7
20260509091053 7 359 8.0 17.7 0.00 0.10 0.03 86 875.8
20260509090054 7 310 8.0 19.3 0.00 0.10 0.03 84 875.9
20260509085016 7 359 11.3 17.7 0.00 0.10 0.03 82 875.9
20260509084039 8 299 12.9 24.1 0.00 0.10 0.03 78 875.9
20260509083037 8 315 9.7 20.9 0.00 0.10 0.03 79 875.7
20260509082028 8 359 11.3 22.5 0.00 0.10 0.03 76 875.6
20260509081029 8 359 9.7 25.7 0.00 0.10 0.03 79 875.5
20260509080028 8 359 12.9 22.5 0.00 0.10 0.03 78 875.4
20260509075025 8 317 14.5 24.1 0.00 0.10 0.03 78 875.5
20260509074024 8 314 12.9 24.1 0.00 0.10 0.03 77 875.6
20260509073042 8 299 14.5 29.0 0.00 0.10 0.03 78 875.3
20260509072029 8 291 14.5 25.7 0.00 0.10 0.03 80 875.2
20260509071029 9 318 16.1 25.7 0.00 0.10 0.03 80 875.2
20260509070033 8 303 17.7 33.8 0.00 0.10 0.03 77 875.0
20260509065037 9 319 14.5 24.1 0.00 0.10 0.03 77 875.3
20260509064041 9 359 11.3 19.3 0.00 0.10 0.03 78 875.1
20260509063016 9 359 9.7 30.6 0.00 0.10 0.03 79 875.2
20260509062058 9 359 9.7 22.5 0.00 0.10 0.03 77 875.2
20260509061031 9 274 12.9 25.7 0.00 0.10 0.03 78 874.9
20260509060025 9 359 11.3 32.2 0.00 0.10 0.03 73 874.9
20260509055020 9 359 12.9 32.2 0.00 0.10 0.03 72 875.0
20260509054042 8 297 9.7 35.4 0.00 0.10 0.03 74 875.1
20260509053042 9 359 16.1 27.4 0.00 0.10 0.03 72 874.9
20260509052032 8 303 12.9 22.5 0.00 0.10 0.03 81 874.7